Waarnemingen

Advertentie
Mijn weer
Spa/La Sauveniere, België (6490): temperatuur & dauwpunt: 03.12.2018 20:00:00 - 09.12.2018 20:00:00 (CET)Spa/La Sauveniere, België (6490): windsnelheid & windstoten: 03.12.2018 20:00:00 - 09.12.2018 20:00:00 (CET)Spa/La Sauveniere, België (6490): windrichting: 03.12.2018 20:00:00 - 09.12.2018 20:00:00 (CET)Spa/La Sauveniere, België (6490): luchtdruk: 03.12.2018 20:00:00 - 09.12.2018 20:00:00 (CET)Spa/La Sauveniere, België (6490): zicht: 03.12.2018 20:00:00 - 09.12.2018 20:00:00 (CET)
Datum & Tijd tt [°C] td [°C] ff [km/u] ff [kn] fx [km/u] fx [kn] dd ppp [hPa] vv [km]
09.12.2018 20:00:00 3,9 2,9 22 12 47 25 NW 1013,6 9
09.12.2018 19:00:00 4,0 3,1 22 12 - - NW 1012,4 18
09.12.2018 18:00:00 4,6 3,8 22 12 47 25 NW 1010,5 19
09.12.2018 17:00:00 5,0 4,1 22 12 43 23 NW 1008,8 15
09.12.2018 16:00:00 5,0 4,3 18 10 - - NW 1007,3 18
09.12.2018 15:00:00 5,3 4,5 22 12 40 21 WNW 1004,9 6
09.12.2018 14:00:00 5,1 4,4 18 10 36 19 WNW 1004,0 6
09.12.2018 13:00:00 5,0 3,8 18 10 - - W 1003,1 30
09.12.2018 12:00:00 5,8 4,5 22 12 47 25 W 1002,3 8
09.12.2018 11:00:00 5,6 4,4 22 12 47 25 W 1002,2 11
09.12.2018 10:00:00 5,2 4,4 22 12 - - W 1002,2 10
09.12.2018 09:00:00 5,3 3,5 22 12 47 25 W 1002,0 8
09.12.2018 08:00:00 5,9 2,9 22 12 58 31 W 1001,1 16
09.12.2018 07:00:00 5,6 3,7 22 12 - - W 1000,6 13
09.12.2018 06:00:00 5,6 3,9 25 14 54 29 W 999,9 11
09.12.2018 05:00:00 5,7 3,9 29 16 54 29 W 999,4 12
09.12.2018 04:00:00 5,9 3,8 25 14 - - W 999,2 17
09.12.2018 03:00:00 6,2 4,5 18 10 58 31 W 998,9 9
09.12.2018 02:00:00 6,9 4,2 29 16 72 39 W 998,5 12
09.12.2018 01:00:00 6,5 5,1 25 14 - - W 998,7 9
09.12.2018 00:00:00 6,9 5,1 29 16 61 33 W 998,7 14
08.12.2018 23:00:00 7,5 6,3 29 16 61 33 W 998,5 28
08.12.2018 22:00:00 7,6 6,6 25 14 - - WZW 999,3 30
08.12.2018 21:00:00 7,4 6,3 40 21 65 35 ZW 1000,2 5
08.12.2018 20:00:00 6,9 5,9 40 21 65 35 ZW 1001,6 5
08.12.2018 19:00:00 6,4 5,3 32 18 - - ZW 1003,4 7
08.12.2018 18:00:00 6,3 5,2 29 16 50 27 ZW 1005,1 6
08.12.2018 17:00:00 6,1 5,0 25 14 61 33 WZW 1006,4 4,7
08.12.2018 16:00:00 6,2 4,5 25 14 - - WZW 1006,7 12
08.12.2018 15:00:00 5,9 4,6 25 14 47 25 W 1007,1 8
08.12.2018 14:00:00 5,9 4,0 25 14 47 25 W 1007,5 13
08.12.2018 13:00:00 5,5 4,1 25 14 - - WZW 1007,6 14
08.12.2018 12:00:00 5,3 3,8 25 14 54 29 WZW 1007,6 16
08.12.2018 11:00:00 5,1 3,8 25 14 61 33 WZW 1007,8 14
08.12.2018 10:00:00 4,5 3,4 25 14 - - WZW 1007,6 12
08.12.2018 09:00:00 3,9 2,8 29 16 54 29 WZW 1008,1 4,6
08.12.2018 08:00:00 3,4 2,1 22 12 54 29 ZW 1008,3 9
08.12.2018 07:00:00 3,8 2,8 32 18 - - ZW 1008,0 5
08.12.2018 06:00:00 4,0 2,6 29 16 58 31 WZW 1008,3 18
08.12.2018 05:00:00 3,9 2,5 29 16 50 27 WZW 1008,7 22
08.12.2018 04:00:00 3,9 2,3 25 14 - - WZW 1009,0 17
08.12.2018 03:00:00 3,6 1,7 22 12 50 27 WZW 1009,6 30
08.12.2018 02:00:00 3,6 2,0 25 14 47 25 WZW 1009,3 30
08.12.2018 01:00:00 3,6 2,0 29 16 - - WZW 1009,2 21
08.12.2018 00:00:00 4,2 2,3 22 12 43 23 WZW 1009,0 18
07.12.2018 23:00:00 4,3 2,8 22 12 47 25 W 1008,5 12
07.12.2018 22:00:00 4,4 3,0 25 14 - - W 1007,6 15
07.12.2018 21:00:00 4,2 3,1 22 12 40 21 W 1006,3 21
07.12.2018 20:00:00 2,9 1,5 18 10 76 41 WNW 1005,3 35
07.12.2018 19:00:00 5,4 4,1 25 14 - - W 1003,1 14
07.12.2018 18:00:00 7,9 6,5 29 16 54 29 ZW 1001,0 5
07.12.2018 17:00:00 7,7 6,4 25 14 43 23 ZZW 1001,2 10
07.12.2018 16:00:00 7,6 6,4 25 14 - - ZZW 1002,5 9
07.12.2018 15:00:00 8,0 6,2 29 16 65 35 ZZW 1003,4 35
07.12.2018 14:00:00 8,7 6,3 40 21 65 35 ZZW 1004,4 27
07.12.2018 13:00:00 9,0 6,2 32 18 - - ZZW 1006,3 45
07.12.2018 12:00:00 8,9 6,8 32 18 61 33 ZZW 1008,1 45
07.12.2018 11:00:00 8,7 6,9 22 12 40 21 ZZW 1009,9 40
07.12.2018 10:00:00 8,4 7,0 18 10 - - ZZW 1011,0 30
07.12.2018 09:00:00 8,3 7,0 18 10 40 21 ZZW 1012,0 -
07.12.2018 08:00:00 8,3 7,1 25 14 43 23 ZZW 1012,5 3,6
07.12.2018 07:00:00 8,5 7,6 22 12 - - ZZW 1012,8 4,1
07.12.2018 06:00:00 8,5 7,1 22 12 36 19 ZZW 1013,8 -
07.12.2018 05:00:00 8,6 7,0 22 12 32 18 ZZW 1014,6 6
07.12.2018 04:00:00 8,7 7,2 18 10 - - ZW 1015,7 14
07.12.2018 03:00:00 9,0 7,4 22 12 36 19 ZW 1016,2 11
07.12.2018 02:00:00 9,1 7,2 22 12 43 23 ZW 1016,7 35
07.12.2018 01:00:00 9,4 8,2 22 12 - - WZW 1017,3 29
07.12.2018 00:00:00 9,3 8,8 18 10 40 21 WZW 1017,7 3,2
06.12.2018 23:00:00 9,4 8,1 18 10 43 23 WZW 1018,0 5
06.12.2018 22:00:00 9,5 8,3 18 10 - - WZW 1018,2 4,8
06.12.2018 21:00:00 9,5 8,2 22 12 36 19 WZW 1018,3 -
06.12.2018 20:00:00 9,6 8,0 18 10 40 21 WZW 1018,4 10
06.12.2018 19:00:00 9,5 8,2 18 10 - - WZW 1018,4 14
06.12.2018 18:00:00 9,4 7,9 22 12 36 19 ZW 1018,5 4,9
06.12.2018 17:00:00 9,3 7,8 18 10 29 16 ZW 1018,4 -
06.12.2018 16:00:00 9,4 7,9 14 8 - - ZW 1018,5 17
06.12.2018 15:00:00 9,5 6,4 18 10 32 18 ZW 1018,3 30
06.12.2018 14:00:00 9,1 7,6 14 8 29 16 WZW 1018,5 23
06.12.2018 13:00:00 9,2 7,7 14 8 - - WZW 1018,7 17
06.12.2018 12:00:00 9,2 6,4 14 8 25 14 WZW 1018,6 16
06.12.2018 11:00:00 9,0 7,3 14 8 29 16 WZW 1018,5 13
06.12.2018 10:00:00 8,6 8,6 14 8 - - WZW 1017,8 -
06.12.2018 09:00:00 8,4 7,5 14 8 32 18 WZW 1017,7 3,4
06.12.2018 08:00:00 8,5 7,5 14 8 36 19 W 1016,7 6
06.12.2018 07:00:00 8,3 8,0 14 8 - - WZW 1016,1 3,4
06.12.2018 06:00:00 7,8 6,6 14 8 29 16 ZW 1015,4 -
06.12.2018 05:00:00 7,4 6,3 11 6 25 14 ZZW 1015,5 3,3
06.12.2018 04:00:00 6,9 5,7 14 8 - - ZZO 1014,8 -
06.12.2018 03:00:00 6,7 5,3 7 4 32 18 - 1015,4 5
06.12.2018 02:00:00 6,6 5,2 14 8 25 14 Z 1015,2 6
06.12.2018 01:00:00 6,5 5,1 18 10 - - Z 1015,5 4,9
06.12.2018 00:00:00 6,4 5,0 25 14 40 21 ZZO 1015,2 10
05.12.2018 23:00:00 6,3 4,9 25 14 43 23 ZZO 1015,7 -
05.12.2018 22:00:00 6,1 4,7 29 16 - - Z 1016,1 8
05.12.2018 21:00:00 5,7 4,4 32 18 43 23 ZZO 1016,0 7
05.12.2018 20:00:00 5,4 4,0 29 16 47 25 ZZO 1016,9 -
05.12.2018 19:00:00 5,1 3,8 32 18 - - ZZO 1017,9 -
05.12.2018 18:00:00 5,1 3,8 32 18 47 25 ZZO 1018,2 -
05.12.2018 17:00:00 4,8 3,5 29 16 43 23 ZZO 1019,0 -
05.12.2018 16:00:00 4,9 3,4 25 14 - - ZZO 1020,2 -
05.12.2018 15:00:00 4,9 3,4 25 14 32 18 ZZO 1021,1 11
05.12.2018 14:00:00 4,8 2,3 22 12 32 18 ZZO 1021,8 15
05.12.2018 13:00:00 4,8 2,0 18 10 - - ZZO 1022,7 12
05.12.2018 12:00:00 4,3 1,5 11 6 32 18 ZZO 1023,4 10
05.12.2018 11:00:00 3,2 1,9 25 14 32 18 ZZO 1024,5 -
05.12.2018 10:00:00 2,7 1,4 22 12 - - ZZO 1025,0 -
05.12.2018 09:00:00 2,5 1,6 22 12 29 16 ZZO 1025,4 -
05.12.2018 08:00:00 2,3 1,9 11 6 25 14 ZZO 1025,7 11
05.12.2018 07:00:00 2,1 -0,1 14 8 - - ZZO 1025,4 18
05.12.2018 06:00:00 1,9 -0,3 14 8 29 16 ZZO 1025,7 27
05.12.2018 05:00:00 1,5 -0,5 14 8 25 14 ZO 1025,4 26
05.12.2018 04:00:00 1,5 -1,1 14 8 - - ZZO 1026,1 24
05.12.2018 03:00:00 1,4 -1,0 18 10 22 12 ZZO 1026,7 19
05.12.2018 02:00:00 2,0 -0,5 14 8 22 12 ZZO 1026,8 25
05.12.2018 01:00:00 2,3 -0,3 14 8 - - ZO 1026,9 26
05.12.2018 00:00:00 2,0 -1,2 14 8 22 12 ZZO 1027,0 23
04.12.2018 23:00:00 2,2 -1,0 14 8 22 12 ZZO 1027,1 25
04.12.2018 22:00:00 2,0 -2,0 14 8 - - ZZO 1027,1 21
04.12.2018 21:00:00 1,9 -3,3 14 8 18 10 ZZO 1026,9 19
04.12.2018 20:00:00 1,7 -3,3 11 6 14 8 ZZO 1026,5 20
04.12.2018 19:00:00 1,9 -0,9 7 4 - - Z 1026,2 16
04.12.2018 18:00:00 1,8 1,8 7 4 11 6 ZZO 1025,8 -
04.12.2018 17:00:00 3,5 0,6 7 4 11 6 ZZO 1025,3 16
04.12.2018 16:00:00 4,3 1,4 7 4 - - ONO 1024,4 23
04.12.2018 15:00:00 4,4 1,8 4 2 14 8 W 1023,6 22
04.12.2018 14:00:00 5,0 2,4 7 4 14 8 W 1023,1 20
04.12.2018 13:00:00 4,8 3,4 7 4 - - NW 1022,5 13
04.12.2018 12:00:00 4,3 2,8 7 4 14 8 NNW 1021,9 -
04.12.2018 11:00:00 4,3 2,9 7 4 22 12 N 1021,4 -
04.12.2018 10:00:00 4,2 3,9 11 6 - - NW 1020,1 3,2
04.12.2018 09:00:00 4,3 3,1 11 6 25 14 NW 1018,8 -
04.12.2018 08:00:00 4,4 3,6 7 4 22 12 - 1017,4 2,2
04.12.2018 07:00:00 4,4 3,3 7 4 - - WNW 1016,2 -
04.12.2018 06:00:00 4,5 3,8 11 6 25 14 NW 1015,3 2,8
04.12.2018 05:00:00 4,8 4,0 14 8 32 18 WNW 1014,1 2,4
04.12.2018 04:00:00 5,1 4,6 14 8 - - NW 1013,0 0,5
04.12.2018 03:00:00 5,9 5,1 14 8 29 16 WNW 1012,1 2,0
04.12.2018 02:00:00 6,2 4,9 11 6 40 21 WNW 1010,6 20
04.12.2018 01:00:00 7,0 5,9 18 10 - - WNW 1009,5 7
04.12.2018 00:00:00 7,9 6,6 22 12 40 21 W 1007,8 18
03.12.2018 23:00:00 8,3 7,2 18 10 43 23 W 1006,2 9
03.12.2018 22:00:00 8,4 7,7 22 12 - - W 1005,2 13
03.12.2018 21:00:00 8,9 7,1 18 10 40 21 W 1004,1 14
03.12.2018 20:00:00 9,1 7,3 22 12 40 21 W 1003,3 19

tt = temperatuur
td = dauwpunt
ff = windsnelheid
fx = windstoten
dd = windrichting
ppp = luchtdruk
vv = zicht

Weerstations in de omgeving